Volver al catálogo

TITAN 3C TRANSTAGE DEB

ActivoLEO
NORAD 3373·DEBRIS·🇺🇸 United States

Lanzado Oct 15, 1965 desde Cape Canaveral Space Force Station

Loading…

Próximos Pases (próximas 24 horas)

TLE

ActualizadoSource: Space-Track

Época: Sep 14, 2026, 13:10 UTC

1  3373U 65082ML  26257.54865595  .00001947  00000-0  38097-3 0  9997
2  3373  30.9715 331.4105 0148343 101.2084 260.5250 14.53744998 63798

Sigue TITAN 3C TRANSTAGE DEB en tiempo real con AllMySat

Download on the App Store